Zurück zum Katalog

YAOGAN-30 H

AktivMilitärVLEO
NORAD 43082·PAYLOAD·🇨🇳 China

Gestartet Dec 25, 2017 von Xichang Satellite Launch Center

Loading…

Nächste Überflüge (nächste 24 Stunden)

TLE

AktuellSource: Space-Track

Epoche: Sep 14, 2026, 14:13 UTC

1 43082U 17085B   26257.59251735  .00001937  00000-0  14320-3 0  9990
2 43082  34.9959 325.0689 0004475  40.7790 319.3252 15.03007036476151

Verfolge YAOGAN-30 H in Echtzeit mit AllMySat

Download on the App Store